"2010-05-16 00:00:00",115660,10.24,43.8,8.31,1.872,12.03,103.8334,9.09,10.18,67.33,0,110.2,13.33,9.87,5.8
"2010-05-16 00:00:30",115661,11.64,44.41,6.407,1.382,10.98,103.8331,9.09,10.1,67.55,0,110.2,13.33,9.87,6.4
"2010-05-16 00:01:00",115662,12.33,49.05,5.071,1.339,13.69,103.834,9.09,10.27,67.85,0,110.2,13.33,9.87,11.0
"2010-05-16 00:01:30",115663,13.38,47.15,6.578,1.473,13.16,103.8346,9.09,10.25,68.06,0,110.2,13.33,9.87,9.2
"2010-05-16 00:02:00",115664,13.59,50.46,7.128,1.349,13.29,103.8331,9.09,10.27,68.89,0,110.2,13.33,9.87,12.5
"2010-05-16 00:02:30",115665,14.48,53.19,5.887,1.402,13.86,103.8357,9.09,10.36,69.72,0,110.2,13.33,9.88,15.2
"2010-05-16 00:03:00",115666,14.98,51.8,6.121,1.245,13.71,103.8369,9.1,10.32,69.51,0,110.2,13.33,9.88,13.8
"2010-05-16 00:03:30",115667,15.7,56.52,4.325,0.97,13.77,103.839,9.1,10.37,68.95,0,110.2,13.33,9.89,18.5
"2010-05-16 00:04:00",115668,14.08,54.21,5.05,1.231,13.55,103.8419,9.11,10.34,68.02,0,110.2,13.33,9.89,16.2
"2010-05-16 00:04:30",115669,13.65,46.66,7.605,0.997,11.83,103.8302,9.08,10.21,67.9,0,110.3,13.33,9.86,8.7
"2010-05-16 00:05:00",115670,14.64,49.2,7.103,1.041,11.92,103.8175,9.05,10.23,68.41,0,110.2,13.33,9.83,11.2
"2010-05-16 00:05:30",115671,15.02,51.54,7.095,1.211,12.08,103.818,9.05,10.15,68,0,110.2,13.33,9.83,13.5
"2010-05-16 00:06:00",115672,14.63,55.15,5.391,1.134,13.49,103.8087,9.02,10.26,67.79,0,110.2,13.33,9.81,17.2
"2010-05-16 00:06:30",115673,15.06,54.45,4.002,0.863,13.85,103.7882,8.97,10.28,67.87,0,110.2,13.33,9.76,16.5
"2010-05-16 00:07:00",115674,13.99,56.56,6.356,1.111,13.72,103.7778,8.95,10.24,68.27,0,110.2,13.33,9.73,18.6
"2010-05-16 00:07:30",115675,14.58,57.24,4.839,0.925,13.55,103.7575,8.89,10.19,68.77,0,110.2,13.33,9.68,19.2
"2010-05-16 00:08:00",115676,16.45,53.41,4.035,0.637,13.49,103.7491,8.87,10.16,69.11,0,110.2,13.33,9.66,15.4
"2010-05-16 00:08:30",115677,14.49,53.89,4.471,0.767,13.33,103.726,8.81,10.14,69.59,0,110.2,13.33,9.60,15.9
"2010-05-16 00:09:00",115678,14.58,55.69,4.588,0.801,13.18,103.7184,8.79,10.1,69.91,0,110.2,13.32,9.58,17.7
"2010-05-16 00:09:30",115679,14.99,57.37,4.486,0.82,13.05,103.6953,8.73,10.06,70.1,0,110.2,13.32,9.52,19.4
"2010-05-16 00:10:00",115680,15.31,51.77,4.921,1.14,13.1,103.6899,8.72,10.03,70.08,0,110.2,13.32,9.50,13.8
"2010-05-16 00:10:30",115681,15.61,52.4,4.616,0.622,13.04,103.6755,8.68,10.02,69.96,0,110.2,13.32,9.47,14.4
"2010-05-16 00:11:00",115682,14.73,51.96,4.594,0.49,13.06,103.6563,8.64,9.98,69.67,0,110.2,13.32,9.42,14.0
"2010-05-16 00:11:30",115683,15.13,51.23,4.366,0.83,12.97,103.6462,8.61,9.94,68.82,0,110.2,13.32,9.39,13.2
"2010-05-16 00:12:00",115684,16.67,53.07,3.513,0.747,13.13,103.6225,8.55,9.9,66.84,0,110.2,13.32,9.33,15.1
"2010-05-16 00:12:30",115685,16.67,53.82,4.265,0.599,13.12,103.6205,8.54,9.87,66.18,0,110.2,13.32,9.33,15.8
"2010-05-16 00:13:00",115686,16.26,54.18,4.247,0.754,13.13,103.5962,8.48,9.86,66.91,0,110.2,13.32,9.26,16.2
"2010-05-16 00:13:30",115687,15.89,55.06,4.243,0.585,13.12,103.5884,8.46,9.81,68.05,0,110.2,13.32,9.24,17.1
"2010-05-16 00:14:00",115688,16.25,55.44,4.508,0.527,13.36,103.5771,8.43,9.78,68.97,0,110.2,13.33,9.21,17.4
"2010-05-16 00:14:30",115689,16.19,55.02,4.981,0.839,13.27,103.5582,8.38,9.76,69.34,0,110.2,13.33,9.17,17.0
"2010-05-16 00:15:00",115690,16.16,55.42,4.078,0.633,13.17,103.5545,8.37,9.74,70.49,0,110.2,13.33,9.16,17.4
"2010-05-16 00:15:30",115691,15.84,57.97,4.423,0.653,13.24,103.5455,8.35,9.72,71.53,0,110.2,13.33,9.13,20.0
"2010-05-16 00:16:00",115692,16.3,56.93,4.132,0.576,13.45,103.5238,8.3,9.7,72.17,0,110.2,13.33,9.08,18.9
"2010-05-16 00:16:30",115693,16.21,56.41,4.574,0.596,13.36,103.5206,8.29,9.68,72.38,0,110.2,13.33,9.07,18.4
"2010-05-16 00:17:00",115694,16.24,56.63,4.172,0.588,13.36,103.5195,8.29,9.64,72.44,0,110.2,13.33,9.07,18.6
"2010-05-16 00:17:30",115695,15.76,56.17,4.15,0.664,13.33,103.4998,8.24,9.62,72.17,0,110.2,13.33,9.02,18.2
"2010-05-16 00:18:00",115696,15.64,56.42,4.86,0.57,13.38,103.4906,8.21,9.6,72.07,0,110.2,13.33,8.99,18.4
"2010-05-16 00:18:30",115697,15.2,59.38,4.432,0.602,13.28,103.4892,8.21,9.57,72.52,0,110.2,13.34,8.99,21.4
"2010-05-16 00:19:00",115698,15.3,59.76,4.278,0.64,13.24,103.4636,8.14,9.54,72.54,0,110.2,13.34,8.92,21.8
"2010-05-16 00:19:30",115699,14.71,58.51,4.537,0.643,13.38,103.4626,8.14,9.5,72.01,0,110.2,13.34,8.92,20.5
"2010-05-16 00:20:00",115700,15.08,58.11,3.34,0.826,13.11,103.4607,8.14,9.45,70.64,0,110.2,13.34,8.92,20.1
"2010-05-16 00:20:30",115701,14.68,58.23,4.491,0.726,13.02,103.4467,8.1,9.42,70.6,0,110.1,13.34,8.88,20.2
"2010-05-16 00:21:00",115702,14.18,58.24,4.622,1.207,13.05,103.4401,8.08,9.43,69.63,0,110.2,13.34,8.86,20.2
"2010-05-16 00:21:30",115703,14.45,65.51,4.584,0.755,13.02,103.4427,8.09,9.41,70.93,0,110.1,13.34,8.87,27.5
"2010-05-16 00:22:00",115704,14.68,59.83,4.967,0.892,13.03,103.4377,8.08,9.35,71.19,0,110.1,13.34,8.86,21.8
"2010-05-16 00:22:30",115705,15,59.03,4.096,0.713,13.06,103.4229,8.04,9.34,70.64,0,110.1,13.34,8.82,21.0
"2010-05-16 00:23:00",115706,14.6,61.45,4.183,0.89,12.9,103.4135,8.01,9.33,70.66,0,110.1,13.34,8.79,23.5
"2010-05-16 00:23:30",115707,14.69,59.03,4.569,0.743,13.13,103.4153,8.02,9.3,71.18,0,110.1,13.34,8.80,21.0
"2010-05-16 00:24:00",115708,14.53,65.27,3.81,0.633,13.26,103.4194,8.03,9.29,70.57,0,110.1,13.34,8.81,27.3
"2010-05-16 00:24:30",115709,13.39,64.3,4.202,0.827,12.88,103.4188,8.03,9.3,70.89,0,110.2,13.34,8.81,26.3
"2010-05-16 00:25:00",115710,12.83,64.52,6.222,0.681,12.8,103.4202,8.03,9.29,71.64,0,110.1,13.34,8.81,26.5
"2010-05-16 00:25:30",115711,12.64,60.12,5.421,0.786,12.61,103.4132,8.01,9.26,71.66,0,110.1,13.34,8.79,22.1
"2010-05-16 00:26:00",115712,12.82,55.92,3.939,0.756,12.79,103.4033,7.988,9.23,71.21,0,110.1,13.34,8.77,17.9
"2010-05-16 00:26:30",115713,14.64,59.75,5.791,0.914,12.68,103.3884,7.95,9.24,71.46,0,110.1,13.34,8.73,21.8
"2010-05-16 00:27:00",115714,14.22,55.79,5.381,0.969,12.62,103.3864,7.945,9.22,69.54,0,110.1,13.34,8.72,17.8
"2010-05-16 00:27:30",115715,12.91,60.67,4.965,0.866,12.62,103.3864,7.945,9.21,69.71,0,110.1,13.34,8.72,22.7
"2010-05-16 00:28:00",115716,12.48,62.45,3.48,0.677,12.66,103.3864,7.945,9.21,71.66,0,110.1,13.34,8.72,24.5
"2010-05-16 00:28:30",115717,13.56,60.25,5.338,0.477,12.63,103.3864,7.945,9.21,71.18,0,110.1,13.34,8.72,22.2
"2010-05-16 00:29:00",115718,14.45,53.17,5.803,0.885,12.58,103.3864,7.945,9.19,68.99,0,110.1,13.34,8.72,15.2
"2010-05-16 00:29:30",115719,14.79,51.91,4.674,0.933,12.35,103.3864,7.945,9.17,67.5,0,110.1,13.34,8.72,13.9
"2010-05-16 00:30:00",115720,13.88,56.18,6.763,0.69,12.57,103.385,7.941,9.16,67.79,0,110.1,13.34,8.72,18.2
"2010-05-16 00:30:30",115721,13.85,59.32,5.164,0.83,12.51,103.3587,7.874,9.15,68.16,0,110.1,13.34,8.65,21.3
"2010-05-16 00:31:00",115722,13.27,55.05,4.86,0.63,12.57,103.3525,7.859,9.14,68.02,0,110.1,13.34,8.64,17.0
"2010-05-16 00:31:30",115723,13.45,59.16,4.837,1.101,12.49,103.3525,7.859,9.13,68.61,0,110.1,13.34,8.64,21.2
"2010-05-16 00:32:00",115724,13.55,60.9,4.326,1.008,12.68,103.3525,7.859,9.1,69.31,0,110.1,13.34,8.64,22.9
"2010-05-16 00:32:30",115725,13.46,58.48,4.23,0.85,12.4,103.3435,7.835,9.09,69.2,0,110.1,13.35,8.61,20.5
"2010-05-16 00:33:00",115726,14.31,56.98,5.397,0.654,12.56,103.3345,7.812,9.09,68.61,0,110.1,13.35,8.59,19.0
"2010-05-16 00:33:30",115727,15.43,53.38,5.345,0.584,12.78,103.3223,7.781,9.08,68.78,0,110.1,13.35,8.56,15.4
"2010-05-16 00:34:00",115728,14.95,56.38,5.007,0.869,12.85,103.3192,7.773,9.08,68.78,0,110.1,13.35,8.55,18.4
"2010-05-16 00:34:30",115729,13.29,55.75,5.77,0.927,12.73,103.3186,7.772,9.07,68.5,0,110.1,13.35,8.55,17.8
"2010-05-16 00:35:00",115730,13.16,62.05,4.621,0.618,12.6,103.3186,7.772,9.06,69.33,0,110.1,13.35,8.55,24.0
"2010-05-16 00:35:30",115731,12.41,54.3,6.846,0.76,12.56,103.3085,7.746,9.05,69.98,0,110.1,13.35,8.53,16.3
"2010-05-16 00:36:00",115732,14.14,55.45,3.331,0.76,12.6,103.2865,7.69,9.02,69.66,0,110.1,13.35,8.47,17.5
"2010-05-16 00:36:30",115733,14.36,53.48,4.729,0.603,12.63,103.2851,7.686,8.99,68.91,0,110.1,13.35,8.47,15.5
"2010-05-16 00:37:00",115734,13,57.09,5.88,1.001,12.63,103.2857,7.688,8.99,69,0,110.1,13.35,8.47,19.1
"2010-05-16 00:37:30",115735,12.1,60.94,5.309,0.78,12.53,103.2874,7.692,8.98,70.12,0,110.1,13.36,8.47,22.9
"2010-05-16 00:38:00",115736,12.92,56.97,3.897,0.77,12.43,103.2906,7.7,8.96,70.42,0,110.1,13.35,8.48,19.0
"2010-05-16 00:38:30",115737,12.61,55.62,4.774,0.527,12.35,103.2727,7.655,8.94,70.38,0,110.1,13.36,8.43,17.6
"2010-05-16 00:39:00",115738,12.57,52.77,5.269,0.768,12.43,103.2629,7.629,8.94,70.71,0,110.1,13.36,8.41,14.8
"2010-05-16 00:39:30",115739,13.42,54.27,4.254,0.858,12.25,103.2652,7.635,8.91,69.7,0,110.1,13.36,8.41,16.3
"2010-05-16 00:40:00",115740,12.3,57.71,4.851,0.826,12.35,103.2696,7.647,8.88,69.87,0,110.1,13.36,8.43,19.7
"2010-05-16 00:40:30",115741,12.48,50.26,4.354,1.113,12.2,103.2745,7.659,8.89,69.85,0,110.1,13.36,8.44,12.3
"2010-05-16 00:41:00",115742,11.98,56.28,3.556,0.916,12.09,103.2747,7.66,8.89,70.57,0,110.1,13.36,8.44,18.3
"2010-05-16 00:41:30",115743,13.1,56.44,5.959,0.625,12.24,103.2597,7.621,8.86,69.93,0,110.1,13.36,8.40,18.4
"2010-05-16 00:42:00",115744,12.55,59.21,6.021,0.818,12.27,103.2564,7.613,8.85,69.93,0,110.1,13.35,8.39,21.2
"2010-05-16 00:42:30",115745,12.99,60.39,6.231,0.86,12.15,103.2499,7.596,8.85,70.72,0,110.1,13.35,8.37,22.4
"2010-05-16 00:43:00",115746,12.25,49.74,7.489,1.557,12.24,103.2509,7.599,8.84,70.24,0,110.1,13.35,8.38,11.7
"2010-05-16 00:43:30",115747,13.37,56.88,5.255,0.759,12.22,103.2503,7.597,8.83,70.19,0,110.1,13.35,8.38,18.9
"2010-05-16 00:44:00",115748,13.17,52.66,4.609,0.791,12.3,103.2517,7.601,8.83,71.22,0,110.1,13.35,8.38,14.7
"2010-05-16 00:44:30",115749,14.07,49.75,4.877,0.665,12.44,103.252,7.602,8.82,70.5,0,110.1,13.35,8.38,11.8
"2010-05-16 00:45:00",115750,13.3,53.06,5.539,0.672,12.47,103.252,7.602,8.85,69.85,0,110.1,13.35,8.38,15.1
"2010-05-16 00:45:30",115751,13.1,53.39,6.674,0.909,12.33,103.252,7.602,8.83,70.62,0,110.1,13.35,8.38,15.4
"2010-05-16 00:46:00",115752,13.98,50.89,3.822,0.785,12.46,103.252,7.602,8.83,70.34,0,110.1,13.35,8.38,12.9
"2010-05-16 00:46:30",115753,12.62,53.44,4.837,0.728,12.49,103.252,7.602,8.83,70.15,0,110.1,13.35,8.38,15.4
"2010-05-16 00:47:00",115754,13.97,52.39,5.633,1.134,12.51,103.252,7.602,8.83,70.43,0,110.1,13.36,8.38,14.4
"2010-05-16 00:47:30",115755,14.62,52.49,6.43,1.391,12.47,103.252,7.602,8.81,70.54,0,110.1,13.36,8.38,14.5
"2010-05-16 00:48:00",115756,14.84,55.59,4.389,0.695,12.73,103.252,7.602,8.82,70.49,0,110.1,13.36,8.38,17.6
"2010-05-16 00:48:30",115757,14.14,56.73,5.902,0.959,12.46,103.252,7.602,8.8,70.93,0,110.1,13.36,8.38,18.7
"2010-05-16 00:49:00",115758,13.79,57.47,4.577,0.836,12.44,103.252,7.602,8.82,70.27,0,110.1,13.36,8.38,19.5
"2010-05-16 00:49:30",115759,13.71,54.91,5.523,0.823,12.39,103.2515,7.6,8.8,70.92,0,110.1,13.36,8.38,16.9
"2010-05-16 00:50:00",115760,14.55,53.17,4.117,0.937,12.56,103.2509,7.599,8.82,70.91,0,110.1,13.36,8.38,15.2
"2010-05-16 00:50:30",115761,13.68,54.33,4.514,0.811,12.39,103.2467,7.588,8.8,70.83,0,110.1,13.36,8.37,16.3
"2010-05-16 00:51:00",115762,14.59,52.98,4.234,0.646,12.43,103.2416,7.575,8.82,71.16,0,110.1,13.36,8.35,15.0
"2010-05-16 00:51:30",115763,14.8,54.9,5.247,0.694,12.47,103.2382,7.566,8.81,71.07,0,110.1,13.36,8.34,16.9
"2010-05-16 00:52:00",115764,15.04,52.96,4.205,0.933,12.66,103.2232,7.528,8.81,71,0,110.1,13.36,8.31,15.0
"2010-05-16 00:52:30",115765,14.55,52.15,4.346,0.722,12.64,103.2193,7.518,8.8,70.89,0,110.1,13.36,8.30,14.2
"2010-05-16 00:53:00",115766,14.59,50.73,4.784,0.832,12.58,103.219,7.517,8.82,70.63,0,110.1,13.36,8.30,12.7
"2010-05-16 00:53:30",115767,15.93,50.95,4.897,0.869,12.74,103.2187,7.517,8.81,70.87,0,110.1,13.36,8.29,13.0
"2010-05-16 00:54:00",115768,15.19,51.58,4.786,0.878,12.87,103.2184,7.516,8.81,70.6,0,110.1,13.36,8.29,13.6
"2010-05-16 00:54:30",115769,14.8,53.21,4.733,0.759,12.62,103.2184,7.516,8.79,71.05,0,110.1,13.36,8.29,15.2
"2010-05-16 00:55:00",115770,14.43,46.81,4.461,0.871,12.82,103.2181,7.515,8.81,70.67,0,110.1,13.37,8.29,8.8
"2010-05-16 00:55:30",115771,15.06,48.62,3.917,0.86,12.62,103.2181,7.515,8.79,70.04,0,110.1,13.37,8.29,10.6
"2010-05-16 00:56:00",115772,15.4,48.79,3.683,0.904,12.77,103.2181,7.515,8.8,70.59,0,110.1,13.37,8.29,10.8
"2010-05-16 00:56:30",115773,14.22,52.71,5.973,0.876,12.58,103.2181,7.515,8.8,70.77,0,110.1,13.37,8.29,14.7
"2010-05-16 00:57:00",115774,13.93,50.07,4.759,0.838,12.54,103.2181,7.515,8.8,71.19,0,110.1,13.37,8.29,12.1
"2010-05-16 00:57:30",115775,14.81,50.64,4.889,0.896,12.62,103.2181,7.515,8.8,71.1,0,110.1,13.37,8.29,12.6
"2010-05-16 00:58:00",115776,14.91,49.84,3.546,0.896,12.68,103.2181,7.515,8.78,71.36,0,110.1,13.37,8.29,11.8
"2010-05-16 00:58:30",115777,15.2,49.18,3.938,0.94,12.61,103.2181,7.515,8.79,70.55,0,110.1,13.36,8.29,11.2
"2010-05-16 00:59:00",115778,15.14,47.67,4.626,0.922,12.64,103.2181,7.515,8.79,70.16,0,110.1,13.36,8.29,9.7
"2010-05-16 00:59:30",115779,14.75,50.61,5.042,0.992,12.66,103.2181,7.515,8.8,70.69,0,110,13.36,8.29,12.6
"2010-05-16 01:00:00",115780,14.63,46.53,4.209,1.2,12.93,103.2181,7.515,8.8,70.99,0,110,13.36,8.29,8.5
"2010-05-16 01:00:30",115781,15.07,48.22,3.916,0.953,12.63,103.2181,7.515,8.79,70.36,0,110.1,13.36,8.29,10.2
"2010-05-16 01:01:00",115782,15.01,49.32,3.904,0.911,12.57,103.2181,7.515,8.82,70.07,0,110.1,13.36,8.29,11.3
"2010-05-16 01:01:30",115783,14.46,49.5,5.032,0.808,12.71,103.2181,7.515,8.81,70.67,0,110.1,13.36,8.29,11.5
"2010-05-16 01:02:00",115784,15.11,50.47,3.726,0.62,12.8,103.219,7.517,8.8,71.16,0,110,13.36,8.30,12.5
"2010-05-16 01:02:30",115785,15.33,47.57,4.481,0.867,12.8,103.2184,7.516,8.8,70.34,0,110.1,13.36,8.29,9.6
"2010-05-16 01:03:00",115786,14.95,48.69,3.844,0.928,12.61,103.2187,7.517,8.79,69.85,0,110,13.36,8.29,10.7
"2010-05-16 01:03:30",115787,14.57,50.52,4.878,0.747,12.67,103.2208,7.522,8.8,69.79,0,110,13.37,8.30,12.5
"2010-05-16 01:04:00",115788,14.92,51.15,3.651,0.717,12.73,103.2202,7.52,8.8,69.86,0,110,13.37,8.30,13.2
"2010-05-16 01:04:30",115789,14.81,50.9,4.791,0.571,12.54,103.2214,7.523,8.8,69.46,0,110.1,13.37,8.30,12.9
"2010-05-16 01:05:00",115790,14.62,49.37,4.555,0.766,12.56,103.2211,7.523,8.82,70.75,0,110.1,13.37,8.30,11.4
"2010-05-16 01:05:30",115791,15.14,50.31,4.243,0.594,12.55,103.2243,7.531,8.8,71.14,0,110,13.37,8.31,12.3
"2010-05-16 01:06:00",115792,15.26,48.36,3.754,0.625,12.92,103.2234,7.529,8.79,70.65,0,110,13.37,8.31,10.4
"2010-05-16 01:06:30",115793,15.75,47.76,3.768,0.643,12.8,103.2275,7.539,8.79,68.84,0,110.1,13.37,8.32,9.8
"2010-05-16 01:07:00",115794,14.83,47.26,4.362,0.835,12.7,103.2272,7.538,8.81,68.26,0,110,13.37,8.32,9.3
"2010-05-16 01:07:30",115795,15.25,47.33,4.17,0.674,12.72,103.2295,7.544,8.81,68.78,0,110.1,13.37,8.32,9.3
"2010-05-16 01:08:00",115796,15.71,50.85,3.75,0.688,12.92,103.2292,7.543,8.79,69,0,110.1,13.37,8.32,12.8
"2010-05-16 01:08:30",115797,14.88,49.68,4.57,0.758,12.82,103.231,7.548,8.81,68.34,0,110.1,13.37,8.33,11.7
"2010-05-16 01:09:00",115798,14.13,51.7,5.271,0.997,12.56,103.2351,7.558,8.81,69.88,0,110.1,13.37,8.34,13.7
"2010-05-16 01:09:30",115799,14.58,46.56,4.874,1.509,12.82,103.2353,7.559,8.82,70.58,0,110.1,13.37,8.34,8.6
"2010-05-16 01:10:00",115800,14.61,46.09,4.179,0.833,12.85,103.2362,7.561,8.8,68.41,0,110.1,13.37,8.34,8.1
"2010-05-16 01:10:30",115801,15.44,48.87,4.194,0.628,12.64,103.2368,7.563,8.8,68.26,0,110.1,13.37,8.34,10.9
"2010-05-16 01:11:00",115802,15.22,48.57,3.453,0.678,12.52,103.2385,7.567,8.81,68.33,0,110.1,13.37,8.35,10.6
"2010-05-16 01:11:30",115803,15.24,51.13,4.702,0.67,12.49,103.2377,7.565,8.82,68.24,0,110.1,13.37,8.34,13.1
"2010-05-16 01:12:00",115804,14.46,51.85,3.794,0.771,12.59,103.2426,7.578,8.83,69.45,0,110,13.37,8.36,13.8
"2010-05-16 01:12:30",115805,14.61,51.89,4.514,0.745,12.37,103.244,7.581,8.84,70.17,0,110.1,13.37,8.36,13.9
"2010-05-16 01:13:00",115806,14.15,51.54,5.044,0.871,12.37,103.2431,7.579,8.85,71.01,0,110.1,13.37,8.36,13.5
"2010-05-16 01:13:30",115807,14.89,51.56,4.819,0.686,12.53,103.2449,7.583,8.84,69.82,0,110,13.37,8.36,13.6
"2010-05-16 01:14:00",115808,15.14,49.95,4.011,0.573,12.69,103.2482,7.592,8.84,69.11,0,110.1,13.37,8.37,12.0
"2010-05-16 01:14:30",115809,14.9,51.15,3.734,0.852,12.33,103.2539,7.606,8.84,69.58,0,110.1,13.37,8.39,13.2
"2010-05-16 01:15:00",115810,14.5,50.15,5.091,0.752,12.43,103.261,7.625,8.85,69.6,0,110,13.37,8.40,12.2
"2010-05-16 01:15:30",115811,14.5,48.84,4.637,0.914,12.37,103.2621,7.627,8.86,69.76,0,110.1,13.37,8.41,10.8
"2010-05-16 01:16:00",115812,14.85,49.63,3.964,0.536,12.53,103.2675,7.641,8.87,69.37,0,110.1,13.37,8.42,11.6
"2010-05-16 01:16:30",115813,14.6,53.03,4.363,0.862,12.36,103.2731,7.656,8.87,69.57,0,110.1,13.37,8.43,15.0
"2010-05-16 01:17:00",115814,14.22,53.56,4.84,0.843,12.49,103.2689,7.645,8.88,70.29,0,110,13.37,8.42,15.6
"2010-05-16 01:17:30",115815,13.77,53.27,4.709,0.673,12.25,103.2627,7.629,8.86,71.97,0,110.1,13.37,8.41,15.3
"2010-05-16 01:18:00",115816,13.46,52.82,4.02,0.582,12.36,103.2513,7.6,8.86,71.33,0,110,13.37,8.38,14.8
"2010-05-16 01:18:30",115817,14.3,52.8,5.336,0.8,12.29,103.2423,7.577,8.84,71.3,0,110.1,13.37,8.36,14.8
"2010-05-16 01:19:00",115818,14.87,53.79,4.383,0.895,12.32,103.2429,7.578,8.86,70.87,0,110,13.37,8.36,15.8
"2010-05-16 01:19:30",115819,13.82,52.33,4.633,0.778,12.43,103.2421,7.576,8.85,71.97,0,110,13.37,8.35,14.3
"2010-05-16 01:20:00",115820,13.53,49.25,3.316,0.853,12.45,103.2429,7.578,8.83,70.21,0,110.1,13.37,8.36,11.2
"2010-05-16 01:20:30",115821,14.17,51.29,4.38,0.404,12.33,103.2432,7.579,8.81,68.89,0,110.1,13.37,8.36,13.3
"2010-05-16 01:21:00",115822,13.94,52.33,4.833,0.559,12.38,103.2426,7.578,8.82,69.48,0,110.1,13.37,8.36,14.3
"2010-05-16 01:21:30",115823,14.4,50.05,3.15,0.762,12.34,103.2435,7.58,8.81,69.49,0,110.1,13.37,8.36,12.0
"2010-05-16 01:22:00",115824,14.18,48.95,3.088,0.839,12.65,103.2432,7.579,8.79,68.81,0,110,13.37,8.36,11.0
"2010-05-16 01:22:30",115825,14.24,49.67,5.426,0.752,12.43,103.2423,7.577,8.79,68.31,0,110.1,13.37,8.36,11.7
"2010-05-16 01:23:00",115826,13.3,49.26,4.826,0.627,12.42,103.2429,7.578,8.81,68.24,0,110.1,13.37,8.36,11.3
"2010-05-16 01:23:30",115827,13.3,50.74,5.997,0.929,12.34,103.2423,7.577,8.8,69.68,0,110.1,13.37,8.36,12.7
"2010-05-16 01:24:00",115828,13.38,52.69,4.629,0.772,12.18,103.2435,7.58,8.8,70.37,0,110.1,13.37,8.36,14.7
"2010-05-16 01:24:30",115829,12.54,54.08,3.861,0.823,12.04,103.2435,7.58,8.8,70.71,0,110.1,13.37,8.36,16.1
"2010-05-16 01:25:00",115830,12.74,48.66,4.237,0.852,12.12,103.2418,7.576,8.8,70.47,0,110.1,13.37,8.35,10.7
"2010-05-16 01:25:30",115831,11.67,43.93,4.01,1.47,12.12,103.2401,7.571,8.78,68.58,0,110.1,13.37,8.35,5.9
"2010-05-16 01:26:00",115832,12.69,48.82,4.626,1.404,11.97,103.2432,7.579,8.78,69.07,0,110.1,13.37,8.36,10.8
"2010-05-16 01:26:30",115833,12.87,51.47,4.81,0.721,11.75,103.2429,7.578,8.78,70.29,0,110.1,13.37,8.36,13.5
"2010-05-16 01:27:00",115834,12.12,47.24,4.824,0.899,11.89,103.2415,7.575,8.81,71.13,0,110.1,13.37,8.35,9.2
"2010-05-16 01:27:30",115835,13.1,49.85,4.04,1.287,11.81,103.2406,7.573,8.79,71.71,0,110,13.37,8.35,11.8
"2010-05-16 01:28:00",115836,13.44,51.15,4.33,1.078,12.04,103.2387,7.568,8.78,69.89,0,110.1,13.37,8.35,13.2
"2010-05-16 01:28:30",115837,12.9,50.6,6.386,0.692,12.03,103.2378,7.565,8.79,70.44,0,110.1,13.37,8.34,12.6
"2010-05-16 01:29:00",115838,12.37,47.42,5.386,1.077,12.13,103.2378,7.565,8.8,70.43,0,110.1,13.37,8.34,9.4
"2010-05-16 01:29:30",115839,12.11,48.06,4.513,1.649,11.98,103.24,7.571,8.77,69.36,0,110.1,13.37,8.35,10.1
"2010-05-16 01:30:00",115840,12.61,47.28,3.894,0.855,12.16,103.2374,7.564,8.78,69,0,110.1,13.37,8.34,9.3
"2010-05-16 01:30:30",115841,12.32,45.78,5.827,1.509,12.13,103.2371,7.564,8.78,67.39,0,110.1,13.37,8.34,7.8
"2010-05-16 01:31:00",115842,12.7,45.16,4.301,1.301,12.07,103.2353,7.559,8.8,67.36,0,110.1,13.37,8.34,7.2
"2010-05-16 01:31:30",115843,13.48,49.44,4.278,0.774,11.99,103.2362,7.561,8.79,67.7,0,110.1,13.37,8.34,11.4
"2010-05-16 01:32:00",115844,12.66,50.16,4.7,0.843,12.23,103.2368,7.563,8.8,68.6,0,110.1,13.37,8.34,12.2
"2010-05-16 01:32:30",115845,13.12,47.8,4.642,1.032,12.2,103.2339,7.555,8.81,67.56,0,110.1,13.37,8.33,9.8
"2010-05-16 01:33:00",115846,13.63,48,4.687,1.066,12.3,103.2395,7.57,8.82,66.93,0,110.1,13.37,8.35,10.0
"2010-05-16 01:33:30",115847,12.45,45.44,4.313,1.164,12.32,103.2502,7.597,8.84,66.74,0,110.1,13.37,8.38,7.4
"2010-05-16 01:34:00",115848,14.24,47.2,4.244,0.881,12.48,103.2596,7.621,8.83,66.25,0,110.1,13.37,8.40,9.2
"2010-05-16 01:34:30",115849,13.98,45.54,5.331,1.342,12.58,103.2626,7.629,8.84,65.33,0,110.1,13.36,8.41,7.5
"2010-05-16 01:35:00",115850,12.5,44.68,4.711,1.161,12.47,103.2678,7.642,8.85,65.37,0,110.1,13.37,8.42,6.7
"2010-05-16 01:35:30",115851,12.91,47.83,4.076,0.666,12.44,103.2701,7.648,8.84,66.64,0,110.1,13.37,8.43,9.8
"2010-05-16 01:36:00",115852,11.85,45.94,4.096,1.064,12.47,103.2704,7.649,8.85,66.76,0,110.1,13.37,8.43,7.9
"2010-05-16 01:36:30",115853,12.21,47.98,5.671,0.838,12.37,103.2727,7.655,8.88,65.85,0,110.1,13.37,8.43,10.0
"2010-05-16 01:37:00",115854,12.67,44.27,3.995,1.473,12.27,103.2721,7.653,8.88,66.56,0,110.1,13.37,8.43,6.3
"2010-05-16 01:37:30",115855,12.59,49.71,3.469,1.158,12.14,103.2745,7.659,8.86,65.88,0,110.1,13.37,8.44,11.7
"2010-05-16 01:38:00",115856,13.08,49.47,3.148,0.75,12.22,103.2748,7.66,8.86,67.01,0,110.1,13.37,8.44,11.5
"2010-05-16 01:38:30",115857,11.28,43.29,4.101,1.055,12.12,103.2739,7.658,8.87,66.69,0,110.1,13.37,8.44,5.3
"2010-05-16 01:39:00",115858,10.71,41.61,6.244,1.15,11.08,103.2728,7.655,8.83,66.57,0,110.1,13.37,8.43,3.6
"2010-05-16 01:39:30",115859,10.09,37.52,6.753,1.173,8.43,103.2693,7.646,8.61,67.12,0,110.1,13.37,8.42,359.5
"2010-05-16 01:40:00",115860,8.42,31.93,1.925,0.952,7.887,103.266,7.637,8.56,67.17,0,110.1,13.41,8.42,353.9
"2010-05-16 01:40:30",115861,9.01,40.06,6.911,1.88,11.61,103.2649,7.635,8.81,67.96,0,110.1,13.38,8.41,2.1
"2010-05-16 01:41:00",115862,11.41,46.54,4.401,1.101,13.05,103.259,7.619,8.86,68.58,0,110.1,13.38,8.40,8.5
"2010-05-16 01:41:30",115863,10.58,47.5,4.653,1.205,13.14,103.248,7.591,8.85,68.72,0,110.1,13.38,8.37,9.5
"2010-05-16 01:42:00",115864,10.84,45.52,5.52,1.224,12.22,103.2418,7.575,8.83,69.08,0,110.1,13.38,8.35,7.5
"2010-05-16 01:42:30",115865,10.38,42.18,6.971,1.73,11.97,103.2403,7.572,8.7,67.54,0,110.1,13.38,8.35,4.2
"2010-05-16 01:43:00",115866,8.97,35.57,4.481,1.162,8.16,103.2388,7.568,8.57,67.69,0,110.1,13.38,8.35,357.6
"2010-05-16 01:43:30",115867,9.31,38.95,6.734,1.38,11.37,103.2383,7.566,8.71,67.73,0,110.1,13.39,8.35,1.0
"2010-05-16 01:44:00",115868,10.68,43.29,6.479,1.508,11.79,103.2409,7.573,8.77,67.57,0,110.1,13.39,8.35,5.3
"2010-05-16 01:44:30",115869,10.11,42.91,4.181,1.211,13.05,103.2377,7.565,8.8,67.95,0,110.1,13.39,8.34,4.9
"2010-05-16 01:45:00",115870,9.21,39.14,5.286,1.135,12.22,103.231,7.548,8.74,66.35,0,110.1,13.39,8.33,1.1
"2010-05-16 01:45:30",115871,8.18,32.76,5.772,1.645,11.22,103.2318,7.55,8.68,65.63,0,110.1,13.39,8.33,354.8
"2010-05-16 01:46:00",115872,7.849,31.29,7.326,1.363,9,103.2345,7.557,8.46,66.1,0,110.1,13.39,8.34,353.3
"2010-05-16 01:46:30",115873,8.84,37.9,8.43,2.061,10.83,103.2345,7.557,8.65,65.81,0,110.1,13.39,8.34,359.9
"2010-05-16 01:47:00",115874,10.04,40.15,6.568,1.337,12.75,103.2345,7.557,8.71,66.03,0,110.1,13.39,8.34,2.2
"2010-05-16 01:47:30",115875,9.8,39.63,5.017,1.061,12.86,103.2314,7.549,8.78,66.28,0,110.1,13.39,8.33,1.6
"2010-05-16 01:48:00",115876,8.91,40.51,4.724,1.071,11.88,103.2309,7.548,8.66,65.97,0,110.1,13.39,8.33,2.5
"2010-05-16 01:48:30",115877,8.65,36.21,5.66,1.126,10.73,103.2247,7.532,8.57,64.81,0,110.1,13.39,8.31,358.2
"2010-05-16 01:49:00",115878,7.83,33.58,6.109,1.334,9.78,103.2273,7.538,8.61,64.72,0,110.1,13.39,8.32,355.6
"2010-05-16 01:49:30",115879,8.22,32.86,6.022,1.423,11.25,103.2301,7.546,8.67,64.86,0,110.1,13.39,8.32,354.9
"2010-05-16 01:50:00",115880,10.13,42.31,5.552,1.519,12.91,103.2282,7.541,8.73,64.88,0,110.1,13.39,8.32,4.3
"2010-05-16 01:50:30",115881,10.98,38.83,5.235,1.22,12.91,103.2333,7.554,8.67,64.73,0,110.1,13.39,8.33,0.8
"2010-05-16 01:51:00",115882,9.42,34.65,6.279,1.471,11.36,103.2282,7.541,8.65,64.61,0,110.1,13.39,8.32,356.6